Regional Weather Roundup
Issued by NWS Memphis, TN

Home | Current Version | Previous Version | Text Only | Print | Product List | Glossary On
Versions: 1 2 3 4 5 6 7 8 9 10 11 12 13 14 15 16 17 18 19 20 21 22 23 24 25 26 27 28 29 30 31 32 33 34 35 36 37 38 39 40 41 42 43 44 45 46 47 48 49 50
000
ASUS44 KMEG 280810
RWRMEG
MEMPHIS CWA HOURLY WEATHER ROUNDUP
NATIONAL WEATHER SERVICE MEMPHIS TN
300 AM CDT TUE MAR 28 2017

...WEST TENNESSEE...

CITY           SKY/WX    TMP DP  RH WIND       PRES   REMARKS
MEMPHIS INTL   PTCLDY    63  58  83 CALM      29.91S
NWS MEMPHIS      N/A     58 N/A N/A MISG        N/A
JACKSON        FOG       54  54 100 CALM      29.92S VSB 1/4
SOMERVILLE     MOCLDY    57  55  94 CALM      29.91R
BOLIVAR        CLOUDY    57  55  94 CALM      29.91S FOG
SAVANNAH       FOG       61  59  94 CALM      29.91R VSB 0
DYERSBURG      CLOUDY    57  55  93 N9        29.94S
PARIS          CLOUDY    52  52 100 N3        29.92S
HUNTINGDON     FOG       52  52 100 CALM      29.92R VSB 1/4


...EASTERN ARKANSAS...

CITY           SKY/WX    TMP DP  RH WIND       PRES   REMARKS
JONESBORO      CLEAR     57  54  89 NE8       29.93R
WEST MEMPHIS   MOCLDY    59  59 100 CALM      29.91R
BATESVILLE     CLEAR     54  50  87 NW5       29.96R
NEWPORT        CLEAR     54  52  93 MISG      29.94S
WALNUT RIDGE   MOCLDY    55  50  82 N6        29.94R
SEARCY         CLEAR     57  53  86 N5        29.96R
STUTTGART      MOCLDY    61  48  63 N7        29.94R
PINE BLUFF     MOCLDY    60  56  86 N5        29.93R
MONTICELLO     PTCLDY    64  57  78 CALM      29.91S


...NORTH MISSISSIPPI...

CITY           SKY/WX    TMP DP  RH WIND       PRES   REMARKS
TUPELO         CLOUDY    63  61  93 CALM      29.90S
OXFORD         CLOUDY    63  55  77 CALM      29.93S
BATESVILLE     MOCLDY    63  59  87 CALM      29.92S
TUNICA         PTCLDY    55  55 100 CALM      29.93R
CORINTH        MOCLDY    61  59  94 NW3       29.90S
GREENWOOD      CLOUDY    69  65  86 SW6       29.90R
COLUMBUS       MOCLDY    66  65  98 N6        29.90R
STARKVILLE     CLEAR     66  63  88 SW5       29.92S
GOLDEN TRIANGL PTCLDY    64  59  82 SW5       29.87S


...SOUTHEAST MISSOURI...

CITY           SKY/WX    TMP DP  RH WIND       PRES   REMARKS
KENNETT        CLOUDY    55  54  94 N5        29.93R FOG
MALDEN         CLEAR     55  52  88 CALM      29.95R
WEST PLAINS    CLOUDY    52  50  93 NW3       29.97R
POPLAR BLUFF   CLEAR     54  52  93 N5        29.93S
CAPE GIRARDEAU MOCLDY    52  50  93 NW5       29.93S


...NORTHWEST ALABAMA...

CITY           SKY/WX    TMP DP  RH WIND       PRES   REMARKS
MUSCLE SHOALS  MOCLDY    60  58  92 CALM      29.91S


...MIDDLE TENNESSEE...

CITY           SKY/WX    TMP DP  RH WIND       PRES   REMARKS
NASHVILLE      CLOUDY    58  57  97 W6        29.90S
CLARKSVILLE    MOCLDY    53  52  96 W6        29.90R
COLUMBIA       CLOUDY   N/A N/A N/A CALM      29.89S


...WESTERN KENTUCKY...

CITY           SKY/WX    TMP DP  RH WIND       PRES   REMARKS
PADUCAH        CLOUDY    56  51  84 W5        29.91R
FORT CAMPBELL  CLOUDY    55  55 100 W7        29.90R


...CENTRAL ARKANSAS...

CITY           SKY/WX    TMP DP  RH WIND       PRES   REMARKS
LITTLE ROCK    PTCLDY    56  55  97 N7        29.94R


SKY/WX REPORTED AS FAIR MEANS FEW OR NO CLOUDS BELOW
12 THOUSAND FEET.





USA.gov is the U.S. government's official web portal to all federal, state and local government web resources and services.